sat.trackr.live / text

‹ back to catalog

STARLINK-34569

NORAD 64610 · 2025-137S

PAYLOAD ACTIVE UNKNOWN

§ Identity

Operator
Country
US
Launch date
2025-06-25
Launch site
AFETR
Launch vehicle
Mass (kg)
RCS (m²)

Purposes: comms

External: N2YO · Heavens-Above · Gunter

§ Orbital elements

Epoch: 2026-05-24T22:13:27.943104Z

Period
94.10 min
Inclination
53.1590°
Eccentricity
0.0001220
Mean motion
15.30206350 rev/d
Perigee alt
474.4 km
Apogee alt
476.0 km
Semi-major
6,853.3 km
B*
4.0852e-4
RAAN
341.3652°
Arg perigee
92.2127°
Mean anomaly
267.9013°
Rev number
5,240

§ Raw data

STARLINK-345691 64610U 25137S   26144.92601786  .00011762  00000+0  40852-3 0  99992 64610  53.1590 341.3652 0001220  92.2127 267.9013 15.30206350 52408

JSON: /api/v1/satellites/64610 · /tle

For live sub-satellite position, see the globe view (requires WebGL).

§ Visibility from observer

Set your observer location to see the next 7 days of passes ≥ 10°. The values pass through the URL so the page stays shareable.

No JS? Fill the form by hand. The geolocation button needs JavaScript.